Temperature
11 11 11 11 11 11 10 10 10 10 10 11 11 10 10 10 10 10 9 9 9 8 8 8 7 7 7 6 6 6 6 5 5 5 5 5 4 4 4 3 3 2 2 2
11 11 10 10 10 10 10 10 9 10 10 10 10 10 10 10 9 9 8 8 8 7 7 7 6 6 6 6 5 5 5 5 5 4 4 4 3 3 3 2 2 1 1 1
8 9 9 9 10 10 9 10 9 10 10 9 9 9 10 9 8 8 8 7 7 6 6 6 5 5 5 5 5 4 4 4 4 3 3 3 2 2 1 1 1 0 0 0
7 9 8 10 10 11 10 10 10 9 9 9 9 9 9 9 8 7 7 6 6 6 5 5 5 4 4 4 4 4 3 3 2 2 2 1 1 1 0 -0 -0 -1 -1 -1
6 7 7 8 10 11 10 9 9 8 8 8 8 8 8 8 7 7 6 6 5 5 5 4 4 4 4 4 3 3 2 2 1 1 0 0 -0 -0 -1 -1 -1 -1 -2 -1
5 7 7 9 11 11 11 9 9 8 7 7 7 5 6 8 7 6 5 5 5 4 4 4 4 3 3 3 2 2 1 0 0 -0 -1 -1 -1 -1 -1 -2 -2 -2 -2 -2
5 6 7 8 10 11 9 8 8 8 8 7 6 6 7 6 6 5 5 4 4 4 4 3 3 2 2 2 1 1 0 -0 -0 -1 -1 -2 -2 -2 -2 -2 -2 -2 -2 -2
4 5 7 9 10 9 8 8 8 8 7 7 6 6 6 5 5 5 4 4 4 3 3 3 2 2 1 1 1 0 -0 -1 -1 -1 -2 -2 -2 -2 -3 -3 -3 -3 -3 -3
6 8 9 9 9 9 9 8 7 7 6 6 5 5 5 5 4 4 4 4 3 2 2 2 2 1 1 0 -0 -1 -1 -2 -2 -2 -2 -3 -3 -3 -3 -3 -4 -4 -4 -4
6 6 8 8 8 7 7 7 6 6 5 5 5 4 4 4 4 4 3 3 2 2 2 1 1 1 0 -0 -1 -2 -2 -2 -3 -3 -3 -3 -4 -4 -4 -5 -5 -5 -5 -4
6 6 7 6 6 6 6 6 6 6 5 5 4 4 4 3 3 3 3 2 2 1 1 1 1 0 -0 -1 -2 -2 -3 -3 -3 -4 -4 -4 -4 -5 -5 -5 -5 -5 -4 -4
6 7 6 7 6 6 6 6 5 5 5 5 4 4 3 3 3 2 2 2 1 1 1 0 0 -0 -1 -2 -3 -3 -4 -4 -4 -4 -5 -5 -6 -6 -5 -5 -5 -5 -4 -4
7 7 7 6 6 6 5 5 5 5 4 4 4 3 3 2 2 2 2 1 1 0 0 -0 -0 -1 -1 -2 -3 -4 -4 -5 -5 -5 -6 -6 -6 -6 -6 -6 -5 -5 -4 -4
6 6 6 5 5 5 5 5 4 4 4 4 3 3 2 2 2 2 1 1 1 0 -0 -1 -1 -1 -2 -3 -4 -4 -5 -5 -5 -6 -6 -6 -6 -6 -6 -6 -6 -5 -4 -4
5 5 5 5 5 5 4 4 4 4 4 3 3 2 2 2 1 1 1 1 0 -0 -1 -1 -2 -2 -3 -4 -4 -5 -5 -6 -6 -6 -6 -7 -6 -6 -6 -6 -6 -5 -5 -4
5 5 5 4 4 4 4 4 3 3 3 3 2 2 2 1 1 1 1 0 -1 -1 -1 -1 -2 -3 -3 -4 -5 -6 -6 -6 -6 -7 -7 -6 -6 -6 -6 -6 -6 -6 -5 -5
4 4 4 4 4 4 3 3 3 2 2 2 2 1 1 1 1 0 0 -0 -1 -1 -2 -2 -3 -3 -4 -5 -6 -6 -6 -6 -7 -7 -7 -7 -6 -6 -6 -6 -6 -6 -5 -5
4 4 3 3 3 3 3 3 2 2 2 1 1 1 0 0 -0 -0 -1 -1 -1 -1 -2 -3 -4 -4 -5 -5 -6 -6 -6 -7 -7 -7 -7 -7 -6 -6 -6 -6 -6 -5 -5 -5
3 3 3 3 3 2 2 2 2 1 1 1 1 0 -0 -0 -1 -1 -1 -2 -2 -2 -3 -4 -4 -5 -5 -6 -6 -6 -7 -7 -7 -7 -7 -7 -6 -6 -6 -6 -5 -5 -5 -5
3 3 2 2 2 2 2 1 1 1 1 0 -0 -0 -1 -1 -1 -2 -2 -2 -2 -3 -4 -4 -5 -5 -6 -6 -7 -7 -7 -7 -7 -7 -7 -7 -6 -6 -6 -6 -6 -5 -6 -6
2 2 2 2 1 1 1 1 0 0 -0 -0 -1 -1 -1 -2 -2 -2 -3 -3 -3 -3 -4 -5 -5 -6 -6 -7 -7 -7 -7 -7 -7 -7 -7 -7 -7 -6 -6 -6 -6 -6 -6 -6
1 1 1 1 1 0 0 -0 -0 -1 -1 -1 -1 -2 -2 -2 -2 -3 -3 -3 -4 -4 -5 -5 -6 -6 -7 -7 -7 -8 -8 -8 -7 -7 -7 -7 -7 -6 -6 -6 -6 -6 -6 -7
0 0 -0 -0 -0 -1 -1 -1 -1 -1 -2 -2 -2 -2 -3 -3 -3 -4 -4 -4 -4 -5 -6 -6 -6 -7 -7 -8 -8 -8 -8 -8 -8 -7 -7 -7 -7 -7 -7 -7 -7 -7 -7 -7
-1 -1 -1 -1 -1 -1 -1 -1 -2 -2 -2 -3 -3 -3 -3 -4 -4 -4 -4 -4 -5 -5 -6 -6 -7 -7 -8 -8 -8 -8 -8 -8 -8 -8 -7 -7 -7 -7 -7 -7 -7 -7 -7 -7
-1 -1 -2 -2 -2 -2 -2 -2 -3 -3 -3 -3 -3 -3 -4 -4 -4 -4 -5 -5 -5 -6 -6 -7 -7 -8 -8 -8 -9 -9 -8 -8 -8 -8 -8 -7 -7 -7 -7 -7 -8 -8 -8 -8
-2 -2 -2 -2 -3 -3 -3 -3 -4 -4 -4 -4 -4 -4 -4 -4 -4 -5 -5 -5 -6 -6 -7 -7 -8 -8 -9 -9 -9 -9 -9 -8 -8 -8 -8 -8 -8 -8 -8 -8 -8 -8 -8 -8
-2 -2 -3 -3 -3 -3 -4 -4 -4 -4 -4 -5 -5 -4 -5 -5 -5 -5 -6 -6 -7 -7 -7 -8 -8 -9 -9 -9 -9 -9 -9 -9 -8 -8 -8 -8 -8 -8 -8 -8 -8 -8 -8 -8
Wind_Speed
7 6 5 8 10 9 11 10 11 10 10 11 7 3 3 1 3 4 5 6 6 6 7 7 8 8 7 8 8 8 8 9 10 10 10 10 10 10 10 10 11 11 12 12
4 6 7 10 14 13 12 10 11 11 11 3 3 4 3 3 3 4 5 7 8 8 8 8 8 8 8 8 9 8 9 10 11 11 11 11 11 11 11 11 11 11 12 13
4 5 8 10 10 8 7 7 8 9 5 4 3 2 1 1 2 3 6 8 8 8 8 9 8 7 8 8 9 9 10 11 11 11 12 12 12 11 12 12 11 12 12 13
2 1 9 9 4 4 4 1 2 5 5 4 2 2 2 4 1 5 7 7 7 7 7 7 7 8 8 9 10 10 11 11 12 11 12 12 12 13 13 11 11 12 12 13
4 4 9 10 6 3 4 2 2 6 4 2 2 2 3 4 2 4 6 6 6 6 6 7 9 9 9 10 10 11 12 12 12 12 13 13 13 14 13 12 12 12 12 13
5 5 8 8 4 1 3 3 2 4 3 1 1 4 5 5 5 7 7 6 6 6 7 9 10 9 10 11 11 12 13 12 12 12 13 15 15 14 13 12 13 12 12 12
6 6 9 8 5 2 3 5 3 3 3 2 3 6 7 7 7 7 7 7 7 7 8 9 10 9 11 12 13 14 13 13 13 12 13 14 14 12 13 13 13 13 13 12
7 6 10 4 4 5 5 3 4 3 3 5 7 8 8 7 7 7 7 7 7 8 9 10 10 10 13 14 15 14 13 14 14 13 12 12 13 14 12 13 13 13 13 13
10 9 3 2 5 4 5 4 3 4 6 7 7 6 6 6 7 7 8 8 8 9 11 11 10 10 14 17 16 16 15 14 14 14 12 11 13 14 13 11 11 12 11 12
5 6 3 5 5 3 3 4 5 6 6 5 6 7 7 7 7 7 8 9 8 10 12 14 12 11 12 15 16 15 16 15 13 14 13 11 10 11 12 12 12 12 12 12
5 4 3 5 5 5 5 4 3 3 3 4 5 7 7 6 8 8 8 8 8 10 13 16 15 14 13 13 14 15 15 14 13 12 13 13 11 11 13 11 14 15 12 12
7 5 5 4 4 3 2 1 3 3 4 4 4 6 7 7 8 8 9 10 11 12 13 15 15 15 14 13 12 14 15 14 12 11 11 11 13 14 18 19 24 25 23 21
4 3 4 3 2 1 1 3 4 4 5 6 6 6 7 7 8 9 10 12 13 14 14 15 16 16 15 13 12 13 15 15 12 11 12 12 13 14 15 17 20 22 23 23
3 4 3 3 2 2 3 4 4 4 5 6 6 7 8 9 9 11 13 13 13 14 15 15 15 16 14 13 13 14 14 16 16 12 12 12 13 13 14 15 15 13 15 20
2 4 4 3 2 3 2 3 4 6 7 7 7 8 9 11 12 14 14 13 13 13 14 15 16 16 14 13 13 14 13 11 11 12 12 12 13 13 13 14 14 14 12 14
2 1 1 1 3 4 4 4 5 7 8 8 9 10 11 12 13 14 14 12 12 15 16 15 16 16 14 13 14 12 11 20 19 14 12 13 13 13 13 13 13 13 12 12
3 3 2 2 4 5 5 6 7 8 9 10 11 12 12 12 14 15 14 12 11 13 13 15 16 15 13 13 13 11 11 14 21 17 12 13 13 13 13 12 13 13 12 14
4 4 3 4 4 6 8 8 8 9 10 12 12 12 13 13 15 17 16 14 12 12 12 13 13 13 12 12 11 10 11 12 12 13 13 13 13 12 12 13 13 14 12 13
1 2 3 5 6 6 8 9 10 10 11 11 12 14 14 14 13 15 14 13 14 16 13 10 19 15 12 14 17 10 11 13 13 13 13 16 15 12 12 12 12 12 12 11
4 4 6 7 8 8 9 11 11 12 12 11 12 14 15 15 13 13 13 12 11 12 12 14 14 11 11 13 19 11 11 13 14 14 13 12 13 13 12 12 12 11 11 10
7 8 9 10 10 11 11 11 12 13 14 12 12 14 16 16 13 11 12 14 11 10 11 18 12 10 11 14 19 10 10 12 13 13 13 13 13 13 12 12 11 11 10 9
8 9 10 11 11 13 12 11 11 13 14 14 14 14 14 15 14 12 11 11 12 15 12 8 8 14 19 22 10 10 11 12 13 12 12 12 12 12 12 12 11 10 9 8
9 10 11 11 12 13 14 12 12 12 14 15 15 14 15 13 11 11 13 9 8 16 13 8 15 24 27 15 9 10 12 13 13 12 12 12 12 12 12 11 10 9 9 7
10 11 11 12 11 12 15 15 13 12 13 13 13 13 13 12 10 9 9 15 18 20 11 14 23 25 24 10 10 11 11 12 12 12 12 11 11 11 10 9 9 8 7 7
11 11 11 11 11 11 13 14 13 12 12 11 11 12 10 9 10 10 9 10 16 18 10 15 22 24 15 9 11 11 11 12 14 14 12 11 11 10 9 8 7 7 6 5
11 11 11 11 11 11 11 10 11 11 10 11 11 9 8 8 9 9 9 10 12 16 12 9 11 14 10 10 11 12 12 13 14 12 11 11 11 10 8 7 7 6 5 4
10 10 9 10 10 9 9 9 11 11 10 11 12 10 9 8 8 8 9 9 9 9 9 9 9 9 9 10 11 12 11 11 12 11 11 10 9 9 8 7 5 4 4 3
Wind_Direction
245 245 234 241 248 236 220 215 229 243 244 259 263 226 162 79 25 31 15 355 335 319 309 307 307 306 306 306 307 308 309 306 301 298 296 294 292 288 285 282 279 276 277 276
279 277 280 275 262 249 239 228 234 254 268 272 121 118 97 53 51 27 345 324 316 311 310 309 308 307 309 308 308 310 309 304 301 301 301 299 295 291 288 284 281 279 276 276
263 306 342 282 255 234 223 220 207 227 228 125 102 92 76 111 80 333 307 302 304 305 302 302 303 304 306 302 306 309 305 301 301 301 300 296 295 293 289 286 282 280 278 276
213 359 252 246 241 226 218 266 138 123 117 124 164 244 220 172 210 301 296 298 301 301 301 301 302 305 303 304 307 306 303 301 300 300 298 296 294 292 290 286 283 283 282 278
160 224 275 289 280 218 171 160 106 129 138 168 255 309 282 216 268 282 287 290 289 291 291 298 303 303 307 308 307 305 302 300 298 297 298 298 296 293 291 289 287 284 282 281
157 197 244 253 266 304 88 209 196 142 149 193 79 346 280 273 303 298 299 298 299 303 303 307 306 310 310 308 308 305 302 299 296 295 296 297 296 295 293 289 289 289 286 281
178 217 260 254 255 133 193 235 169 153 171 193 210 232 253 282 286 283 289 292 299 304 304 301 303 308 306 305 303 301 299 298 296 293 293 295 295 294 295 294 292 291 289 286
166 200 250 247 146 163 195 154 155 180 214 237 245 259 272 279 279 289 295 299 303 303 301 300 302 305 305 304 302 302 300 298 296 294 295 299 297 298 295 294 295 295 294 293
192 210 234 119 128 134 142 154 188 219 241 248 259 268 277 279 285 290 292 295 297 297 299 300 298 296 299 303 304 305 303 300 298 297 294 292 294 298 299 296 295 297 296 296
223 253 176 135 127 132 161 185 217 234 249 252 263 274 281 283 287 292 293 296 297 301 304 306 305 297 290 297 302 303 303 302 301 301 301 297 292 293 295 296 295 295 296 295
238 251 140 161 181 193 196 201 221 250 251 257 268 278 279 285 288 289 292 292 293 295 300 303 306 303 298 297 301 302 302 301 302 299 299 302 297 293 294 287 288 294 294 294
228 222 185 210 201 188 181 248 269 279 287 281 268 275 283 284 283 286 290 293 296 296 297 301 304 305 305 302 299 301 306 306 304 302 301 302 303 302 297 296 297 297 296 295
201 175 175 197 187 186 250 272 272 271 277 289 289 280 283 286 286 289 292 294 294 294 296 300 303 304 306 305 302 300 301 303 304 301 302 304 304 304 305 305 301 298 297 298
158 144 163 180 219 274 284 287 292 293 287 278 279 286 287 287 288 290 290 290 290 292 296 298 301 303 306 306 304 300 300 303 305 301 300 300 300 300 300 302 306 304 300 299
172 165 186 219 275 315 321 316 312 304 297 294 288 288 287 289 291 291 291 291 292 292 295 298 301 303 306 305 303 301 302 301 300 298 298 298 299 299 298 298 299 300 301 302
211 175 188 264 299 309 318 315 301 293 292 291 292 289 285 283 285 289 290 289 290 295 299 300 299 299 303 303 301 301 299 304 310 306 302 301 300 300 300 300 300 299 300 301
217 244 254 269 288 296 293 283 276 279 284 285 284 285 287 288 291 293 292 287 280 283 288 291 293 296 297 296 297 300 299 302 307 307 301 300 300 299 299 299 298 298 297 298
203 212 219 238 262 282 289 287 282 280 279 278 283 287 287 288 291 295 297 298 297 293 286 282 286 295 293 295 298 297 298 300 300 300 301 302 302 299 299 297 297 297 299 300
206 265 280 281 275 271 274 279 280 278 278 281 284 286 286 285 285 289 293 296 300 302 298 289 304 308 297 300 309 299 299 301 303 303 303 304 305 300 298 297 298 299 302 304
329 313 301 291 284 272 272 275 278 281 280 278 280 285 289 289 287 288 289 287 283 281 287 296 300 293 294 299 307 301 303 306 307 307 305 303 302 302 301 300 300 303 304 301
305 296 291 286 285 281 276 276 281 284 286 283 280 283 287 290 289 286 289 295 289 280 288 301 307 300 301 307 312 309 307 308 307 306 304 304 304 303 302 303 304 305 304 304
290 286 285 285 286 288 284 279 278 281 285 286 282 281 284 289 290 286 274 278 287 297 304 294 294 304 315 318 313 309 307 306 306 304 302 303 304 305 306 306 308 309 308 306
282 282 283 284 284 286 289 286 280 279 280 282 283 284 283 284 287 290 295 288 287 301 309 294 306 315 319 322 311 306 305 305 305 303 303 304 305 306 306 308 310 309 307 306
283 283 282 282 284 286 288 289 285 280 277 278 278 275 278 285 286 275 274 292 304 307 305 304 314 318 322 319 306 304 305 305 304 302 303 304 304 305 305 308 309 309 310 310
279 281 282 283 285 284 284 287 291 288 284 283 278 274 271 269 274 284 285 287 298 307 302 307 314 318 318 304 304 306 307 304 304 306 305 306 306 306 304 304 304 306 309 310
281 283 283 279 277 281 284 287 288 289 290 291 291 284 278 275 273 279 283 284 286 299 304 299 301 307 306 304 306 307 306 306 307 305 303 305 304 303 302 302 302 305 306 308
283 282 285 286 283 276 277 281 285 288 289 290 293 292 287 286 284 284 285 288 290 291 293 295 297 299 301 304 307 307 306 305 305 305 305 303 302 301 301 300 300 301 303 304
Height
1525 1524 1524 1524 1523 1522 1525 1525 1526 1518 1516 1509 1507 1508 1509 1509 1509 1508 1507 1506 1503 1501 1498 1494 1490 1486 1483 1479 1475 1470 1466 1461 1457 1452 1447 1441 1436 1430 1425 1419 1413 1407 1401 1395
1524 1521 1522 1521 1515 1514 1514 1514 1514 1511 1509 1505 1505 1506 1507 1507 1507 1506 1505 1503 1500 1497 1493 1489 1485 1481 1478 1474 1470 1465 1460 1456 1450 1445 1439 1433 1427 1421 1415 1409 1403 1397 1391 1385
1531 1526 1524 1521 1507 1506 1506 1504 1505 1507 1506 1505 1506 1506 1506 1505 1505 1504 1502 1499 1495 1492 1488 1485 1481 1477 1473 1469 1464 1459 1454 1449 1443 1437 1430 1424 1418 1411 1405 1399 1392 1386 1380 1375
1532 1528 1530 1509 1500 1499 1500 1500 1500 1501 1504 1504 1505 1505 1504 1503 1502 1500 1497 1494 1491 1487 1484 1481 1477 1473 1468 1464 1458 1453 1447 1441 1435 1428 1421 1415 1408 1402 1395 1389 1383 1376 1370 1365
1534 1532 1522 1507 1498 1495 1498 1501 1501 1502 1503 1503 1503 1502 1501 1500 1499 1496 1493 1490 1487 1484 1480 1476 1472 1468 1462 1457 1451 1445 1439 1432 1426 1420 1413 1406 1399 1393 1386 1380 1373 1367 1361 1356
1531 1529 1523 1504 1495 1493 1497 1503 1501 1500 1501 1501 1500 1503 1500 1497 1495 1492 1489 1486 1483 1479 1476 1472 1467 1462 1456 1450 1444 1437 1431 1425 1419 1412 1406 1398 1391 1384 1378 1371 1364 1358 1352 1347
1525 1525 1512 1497 1493 1494 1504 1502 1500 1498 1499 1499 1498 1498 1496 1493 1490 1488 1485 1482 1478 1475 1471 1467 1462 1456 1449 1443 1437 1430 1424 1417 1410 1404 1398 1390 1383 1376 1369 1362 1355 1349 1343 1338
1522 1523 1510 1491 1491 1495 1497 1496 1496 1496 1496 1496 1494 1492 1490 1488 1486 1483 1480 1477 1474 1470 1466 1461 1456 1450 1442 1436 1430 1423 1415 1408 1401 1395 1389 1382 1374 1366 1360 1353 1346 1340 1334 1329
1502 1498 1492 1489 1490 1492 1493 1494 1494 1494 1493 1492 1490 1488 1486 1483 1481 1478 1475 1472 1468 1464 1459 1454 1450 1444 1437 1429 1422 1414 1407 1399 1392 1386 1379 1373 1366 1358 1351 1345 1339 1332 1327 1321
1494 1489 1488 1489 1489 1491 1491 1492 1491 1490 1489 1487 1485 1483 1481 1479 1476 1473 1470 1467 1463 1458 1452 1446 1441 1436 1430 1423 1415 1407 1398 1390 1383 1377 1369 1363 1357 1351 1344 1337 1332 1326 1321 1316
1489 1486 1487 1489 1489 1489 1489 1488 1487 1486 1485 1483 1481 1479 1477 1474 1471 1468 1465 1461 1457 1452 1446 1439 1433 1427 1421 1415 1407 1398 1390 1382 1375 1369 1362 1354 1348 1343 1336 1330 1327 1321 1315 1311
1485 1482 1484 1485 1485 1485 1485 1484 1483 1482 1481 1479 1478 1475 1473 1470 1467 1463 1459 1455 1450 1445 1439 1432 1425 1419 1413 1406 1399 1391 1382 1374 1367 1361 1354 1347 1339 1332 1328 1324 1318 1314 1310 1305
1479 1479 1481 1482 1482 1482 1481 1481 1480 1479 1477 1476 1474 1471 1468 1465 1461 1458 1453 1449 1444 1438 1431 1425 1418 1411 1404 1397 1390 1383 1376 1368 1360 1354 1347 1340 1333 1326 1319 1314 1310 1306 1302 1298
1477 1478 1479 1479 1480 1479 1478 1478 1477 1475 1474 1472 1470 1467 1464 1460 1456 1451 1447 1442 1436 1430 1424 1417 1410 1403 1396 1389 1382 1375 1368 1361 1354 1347 1340 1334 1328 1321 1315 1309 1302 1296 1293 1290
1475 1476 1476 1476 1476 1476 1475 1474 1473 1471 1470 1467 1465 1462 1458 1454 1449 1444 1440 1435 1429 1422 1416 1409 1402 1395 1389 1382 1375 1368 1361 1354 1347 1340 1334 1328 1322 1316 1310 1304 1298 1292 1286 1282
1473 1473 1473 1473 1473 1473 1472 1471 1469 1467 1465 1462 1459 1456 1452 1448 1442 1437 1432 1427 1421 1414 1407 1401 1394 1387 1381 1374 1367 1360 1353 1347 1341 1334 1327 1321 1315 1309 1304 1298 1293 1287 1282 1277
1470 1470 1471 1471 1470 1470 1469 1467 1466 1463 1460 1457 1453 1449 1445 1440 1434 1428 1423 1418 1413 1406 1401 1394 1386 1379 1373 1367 1360 1353 1346 1339 1334 1328 1321 1315 1309 1303 1298 1293 1287 1282 1277 1273
1468 1469 1469 1469 1468 1466 1465 1463 1461 1458 1455 1451 1447 1442 1437 1432 1426 1420 1414 1409 1403 1396 1392 1386 1379 1371 1365 1360 1353 1346 1339 1333 1327 1321 1315 1309 1303 1298 1293 1287 1282 1277 1271 1267
1466 1467 1466 1466 1465 1463 1460 1458 1455 1452 1448 1444 1439 1434 1429 1424 1418 1412 1406 1400 1394 1387 1381 1377 1371 1365 1358 1352 1346 1339 1332 1327 1321 1315 1309 1303 1297 1292 1287 1282 1277 1272 1267 1262
1465 1464 1463 1462 1460 1458 1455 1451 1448 1444 1440 1436 1431 1425 1420 1414 1410 1404 1398 1392 1387 1381 1374 1368 1362 1356 1350 1344 1338 1332 1327 1321 1315 1308 1303 1297 1291 1286 1281 1276 1272 1267 1262 1257
1462 1460 1458 1456 1453 1451 1448 1444 1440 1435 1431 1427 1422 1417 1411 1405 1401 1395 1389 1382 1378 1374 1367 1361 1356 1349 1343 1337 1332 1326 1320 1314 1308 1302 1297 1291 1286 1281 1276 1271 1266 1262 1257 1252
1457 1455 1452 1449 1446 1442 1439 1436 1431 1427 1422 1417 1412 1407 1402 1396 1391 1386 1381 1377 1370 1365 1359 1354 1348 1342 1337 1331 1325 1319 1313 1308 1302 1297 1291 1286 1281 1276 1271 1266 1261 1257 1252 1248
1451 1448 1445 1442 1438 1433 1429 1425 1421 1417 1412 1407 1402 1398 1393 1388 1383 1378 1372 1368 1363 1358 1352 1347 1341 1336 1331 1324 1318 1312 1307 1301 1296 1291 1286 1281 1276 1271 1266 1261 1257 1252 1248 1244
1443 1440 1436 1433 1429 1424 1419 1414 1410 1406 1402 1397 1393 1389 1384 1378 1373 1370 1365 1360 1356 1350 1345 1340 1334 1329 1323 1317 1311 1306 1300 1295 1290 1285 1280 1276 1271 1266 1262 1257 1253 1249 1245 1242
1434 1430 1426 1423 1418 1414 1409 1404 1400 1395 1391 1387 1383 1379 1375 1371 1366 1361 1357 1352 1348 1342 1337 1332 1327 1322 1316 1310 1305 1299 1294 1289 1284 1280 1275 1270 1266 1261 1257 1253 1249 1245 1242 1239
1424 1421 1417 1413 1409 1405 1400 1396 1391 1386 1382 1377 1373 1370 1366 1363 1358 1354 1349 1344 1340 1335 1330 1324 1319 1314 1309 1303 1298 1293 1288 1283 1278 1274 1269 1265 1260 1256 1252 1248 1245 1242 1240 1238
1415 1411 1407 1403 1399 1396 1392 1388 1383 1378 1374 1370 1365 1361 1358 1354 1350 1345 1341 1336 1332 1327 1322 1317 1312 1307 1302 1297 1292 1287 1282 1277 1273 1268 1264 1260 1256 1252 1248 1245 1242 1240 1238 1236